Terug naar catalogus

ICEYE-X38

ActiefWetenschapSSO
NORAD 59100·PAYLOAD·🇫🇮 Finland

Gelanceerd Mar 4, 2024 vanaf Vandenberg Space Force Base

Loading…

Volgende Passages (komende 24 uur)

TLE

VersSource: Space-Track

Epoch: Sep 14, 2026, 20:25 UTC

1 59100U 24043C   26257.85070440  .00003472  00000-0  19768-3 0  9998
2 59100  97.8531  44.1769 0003658 121.8712 238.2874 15.13537230125232

Volg ICEYE-X38 in realtime met AllMySat

Download on the App Store